Location: Newark
(41.2353°N, 79.5361°W)
Time: 16:37:07
(UTC+00:00)

X-37B - Visible Passes

Search period start: 05 March 2021 00:00
Search period end: 15 March 2021 00:00
Orbit: 383 x 391 km, 45.0° (Epoch: 27 February)

Date Brightness Start Highest point End Pass type
(mag) Time Alt. Az. Time Alt. Az. Time Alt. Az.
11 Mar 1.9 00:48:17 10° SSW 00:50:31 28° S 00:50:31 28° S visible
11 Mar 2.4 23:50:42 10° S 23:52:59 18° SE 23:55:15 10° E visible
12 Mar 2.7 01:26:06 10° WSW 01:27:38 26° WSW 01:27:38 26° WSW visible
13 Mar 0.7 00:27:49 10° SW 00:30:58 56° SSE 00:32:19 29° E visible
13 Mar 4.2 02:04:35 10° W 02:04:37 10° W 02:04:37 10° W visible
14 Mar 1.0 01:06:03 10° W 01:09:11 59° NNW 01:09:11 59° NNW visible
